Regional Weather Roundup
Issued by NWS Charleston, SC

Current Version | Previous Version | Graphics & Text | Print | Product List | Glossary On
Versions: 1 2 3 4 5 6 7 8 9 10 11 12 13 14 15 16 17 18 19 20 21 22 23 24 25 26 27 28 29 30 31 32 33 34 35 36 37 38 39 40 41 42 43 44 45 46 47 48 49 50
000 ASUS42 KCHS 250413 RWRCHS REGIONAL WEATHER ROUNDUP NATIONAL WEATHER SERVICE CHARLESTON SC 1200 AM EDT MON JUL 25 2016 NOTE: "FAIR" INDICATES FEW OR NO CLOUDS BELOW 12,000 FEET WITH NO SIGNIFICANT WEATHER AND/OR OBSTRUCTIONS TO VISIBILITY. NOT ALL STATIONS ARE QUALITY CONTROLLED. USE DATA WITH CAUTION... ESPECIALLY DEWPOINT OBSERVATIONS. SCZ027-030-031-034>040-042>050-250500- ...SOUTHEAST SOUTH CAROLINA... CITY SKY/WX TMP DP RH WIND PRES REMARKS N CHARLESTON PTCLDY 80 75 84 S5 30.06R WATERFRONT PRK N/A 84 78 82 S6 30.04R HX 95 MOUNT PLEASANT FAIR 79 77 94 CALM 30.06S JOHNS ISLAND FAIR 82 77 83 S6 30.06S HX 91 PINOPOLIS N/A 81 77 89 VRB2 29.99R MONCKS CORNER FAIR 75 73 94 CALM 30.06S SUMMERVILLE NOT AVBL BEAUFORT MCAS CLEAR 84 75 74 S3 30.06R HX 92 BEAUFORT ARPT FAIR 82 73 74 S6 30.06R HILTON HEAD IS CLEAR 84 75 74 S8 30.07S HX 92 WALTERBORO CLEAR 81 79 94 S3 30.07S ALLENDALE FAIR 81 75 83 CALM 30.06R ...SOUTHERN MIDLANDS AND PEE DEE... CITY SKY/WX TMP DP RH WIND PRES REMARKS GEORGETOWN FAIR 77 73 88 CALM 30.07S KINGSTREE FAIR 77 73 88 SE3 30.05S ORANGEBURG CLEAR 81 75 82 S6 30.06R BARNWELL NOT AVBL AIKEN FAIR 79 72 78 S6 30.09S MANNING FAIR 81 73 78 S6 30.05S COLUMBIA CLEAR 85 73 67 SW6 30.04S HX 91 SUMTER CLEAR 81 75 82 S5 30.03S FLORENCE PTCLDY 81 76 84 S7 30.06R MYRTLE BEACH CLEAR 82 72 69 SW6 30.07S N MYRTLE BEACH CLEAR 83 77 82 SW9 30.06R HX 92 $$ GAZ063-065-086>088-099>101-113>116-118-119-134>141-150-250500- ...SOUTHEAST GEORGIA... CITY SKY/WX TMP DP RH WIND PRES REMARKS SAVANNAH ARPT CLEAR 80 74 81 S5 30.07R HUNTER AAF CLEAR 82 77 85 S3 30.04R HX 90 FORT STEWART CLEAR 76 74 91 CALM 30.04R STATESBORO CLEAR 78 75 92 CALM 30.07R SYLVANIA NOT AVBL CLAXTON FAIR 76 75 97 CALM 30.08R ...CSRA...CENTRAL AND FAR SOUTHEAST GEORGIA... CITY SKY/WX TMP DP RH WIND PRES REMARKS THOMSON NOT AVBL AUGUSTA-BUSH CLEAR 78 73 84 S3 30.04S AUGUSTA-DANIEL CLEAR 85 72 65 S5 30.06S HX 91 SWAINSBORO FAIR 77 72 83 S3 30.07S VIDALIA PTCLDY 79 70 73 CALM 30.07S EASTMAN FAIR 82 63 52 CALM 30.08S HAZLEHURST FAIR 82 73 74 CALM 30.06S ALMA PTCLDY 76 72 87 CALM 30.06R WAYCROSS CLEAR 81 76 85 S6 30.06S JESUP FAIR 79 77 94 CALM 30.07R BAXLEY FAIR 77 77 100 CALM 30.07R BRUNSWICK CLEAR 84 75 74 S7 30.07S HX 92 SAINT SIMONS CLEAR 85 71 63 S9 30.06R HX 90 $$ SCZ027-028-034-036>038-045-046-048>050-GAZ119-141-250500- ...LAKE AND SUPPLEMENTAL COASTAL OBSERVATIONS... STATION/POSITION TIME TEMP WIND PRES WAVE SWELL AIR SEA DIR/SP/G HT/PER HT/PER/DIR (UTC) (F) (DEG/KT/KT) (MB) (FT/S) (FT/S/D) WINYAH BAY NOT AVBL LAKE MURRAY 0300 87 190/ 10/ 12 1016.6R ACE BASIN NERRS NOT AVBL FORT PULASKI 0300 88 1018.1 SAPELO ISLAND 0300 84 180/ 10 1018.0R $$ ANZ835-935-AMZ111-154-330-350-352-354-370-450-454-472-250500- ...C-MAN AND BUOY OBSERVATIONS... STATION/POSITION TIME TEMP WIND PRES WAVE SWELL AIR SEA DIR/SP/G HT/PER HT/PER/DIR (UTC) (F) (DEG/KT/KT) (MB) (FT/S) (FT/S/D) BUOY 41004 0350 85 86 200/ 12/ 14 1017.4R 2/ 9 2/120/ 9 BUOY 41008 0350 85 86 160/ 16/ 17 1017.6R 3/ 8 2/ 80/ 8 FOLLY BEACH CMAN 0300 84 200/ 12/ 14 1017.8R CAPERS NEARSHORE 0308 84 83 210/ 12/ 16 1017.6R FRIPP NEARSHORE 0308 85 86 190/ 14/ 17 1017.1R STATION/POSITION TIME TEMP WIND PRES WAVE SWELL AIR SEA DIR/SP/G HT/PER HT/PER/DIR (UTC) (F) (DEG/KT/KT) (MB) (FT/S) (FT/S/D) 5E ST. MARYS GA 0401 86 N/A 3/ 4 FRYING PAN BUOY 0300 85 86 200/ 10/ 14 1017.9R BUOY 41025 0250 85 85 220/ 14/ 16 1017.8 2/ 8 2/120/ 8 CAPE LOOKOUT NC 0300 83 210/ 9/ 10 1017.6R BUOY 41002 0350 84 85 180/ 4/ 6 1019.2F 2/ 9 2/100/ 9 BUOY 41010 0320 85 86 150/ 4/ 6 1018.7R ST AUGUSTINE FL 0400 81 86 220/ 7/ 9 1019.5R $$

USA.gov is the U.S. government's official web portal to all federal, state and local government web resources and services.